Time,TemperatureF,DewpointF,PressureIn,WindDirection,WindDirectionDegrees,WindSpeedMPH,WindSpeedGustMPH,Humidity,HourlyPrecipIn,Conditions,Clouds,dailyrainin,SoftwareType,DateUTC
2013-01-18 00:03:00,26.0,14.0,30.37,WNW,285,1.0,-999.0,61,-99.99,,,-99.99,,2013-01-18 05:03:00,
2013-01-18 00:12:00,26.0,14.0,30.37,WNW,285,1.0,-999.0,61,-99.99,,,-99.99,,2013-01-18 05:12:00,
2013-01-18 00:22:00,26.0,15.0,30.38,WNW,284,1.0,-999.0,62,-99.99,,,-99.99,,2013-01-18 05:22:00,
2013-01-18 00:33:00,26.0,15.0,30.37,WSW,251,1.0,-999.0,62,-99.99,,,-99.99,,2013-01-18 05:33:00,
2013-01-18 00:42:00,26.0,15.0,30.37,WSW,251,1.0,-999.0,62,-99.99,,,-99.99,,2013-01-18 05:42:00,
2013-01-18 00:53:00,26.0,15.0,30.37,WSW,246,2.0,-999.0,62,-99.99,,,-99.99,,2013-01-18 05:53:00,
2013-01-18 01:02:00,26.0,15.0,30.37,SW,230,2.0,-999.0,62,-99.99,,,-99.99,,2013-01-18 06:02:00,
2013-01-18 01:12:00,26.0,15.0,30.37,SW,230,2.0,-999.0,62,-99.99,,,-99.99,,2013-01-18 06:12:00,
2013-01-18 01:22:00,26.0,15.0,30.37,SW,232,3.0,-999.0,62,-99.99,,,-99.99,,2013-01-18 06:22:00,
2013-01-18 01:32:00,26.0,15.0,30.39,SW,232,3.0,-999.0,63,-99.99,,,-99.99,,2013-01-18 06:32:00,
2013-01-18 01:43:00,26.0,15.0,30.39,SW,232,3.0,-999.0,63,-99.99,,,-99.99,,2013-01-18 06:43:00,
2013-01-18 01:52:00,26.0,16.0,30.40,WSW,241,3.0,-999.0,64,-99.99,,,-99.99,,2013-01-18 06:52:00,
2013-01-18 02:02:00,25.0,15.0,30.40,SW,229,2.0,-999.0,64,-99.99,,,-99.99,,2013-01-18 07:02:00,
2013-01-18 02:12:00,25.0,15.0,30.40,SW,229,2.0,-999.0,64,-99.99,,,-99.99,,2013-01-18 07:12:00,
2013-01-18 02:22:00,25.0,15.0,30.41,SW,230,2.0,-999.0,65,-99.99,,,-99.99,,2013-01-18 07:22:00,
2013-01-18 02:32:00,25.0,15.0,30.42,WSW,243,2.0,-999.0,66,-99.99,,,-99.99,,2013-01-18 07:32:00,
2013-01-18 02:42:00,25.0,15.0,30.42,WSW,243,2.0,-999.0,66,-99.99,,,-99.99,,2013-01-18 07:42:00,
2013-01-18 02:52:00,24.0,15.0,30.42,WSW,243,2.0,-999.0,67,-99.99,,,-99.99,,2013-01-18 07:52:00,
2013-01-18 03:02:00,24.0,15.0,30.42,WSW,243,1.0,-999.0,67,-99.99,,,-99.99,,2013-01-18 08:02:00,
2013-01-18 03:12:00,24.0,15.0,30.42,WSW,243,1.0,-999.0,67,-99.99,,,-99.99,,2013-01-18 08:12:00,
2013-01-18 03:22:00,24.0,15.0,30.43,WSW,243,1.0,-999.0,67,-99.99,,,-99.99,,2013-01-18 08:22:00,
2013-01-18 03:32:00,24.0,15.0,30.43,WSW,243,1.0,-999.0,68,-99.99,,,-99.99,,2013-01-18 08:32:00,
2013-01-18 03:42:00,24.0,15.0,30.43,WSW,243,1.0,-999.0,68,-99.99,,,-99.99,,2013-01-18 08:42:00,
2013-01-18 03:53:00,24.0,15.0,30.43,WSW,243,1.0,-999.0,68,-99.99,,,-99.99,,2013-01-18 08:53:00,
2013-01-18 04:02:00,23.0,14.0,30.42,WSW,243,1.0,-999.0,69,-99.99,,,-99.99,,2013-01-18 09:02:00,
2013-01-18 04:12:00,23.0,14.0,30.42,WSW,243,1.0,-999.0,69,-99.99,,,-99.99,,2013-01-18 09:12:00,
2013-01-18 04:22:00,22.0,14.0,30.42,WSW,243,1.0,-999.0,70,-99.99,,,-99.99,,2013-01-18 09:22:00,
2013-01-18 04:32:00,22.0,14.0,30.43,WSW,243,1.0,-999.0,71,-99.99,,,-99.99,,2013-01-18 09:32:00,
2013-01-18 04:42:00,22.0,14.0,30.43,WSW,243,1.0,-999.0,71,-99.99,,,-99.99,,2013-01-18 09:42:00,
2013-01-18 04:52:00,21.0,13.0,30.42,WSW,243,1.0,-999.0,72,-99.99,,,-99.99,,2013-01-18 09:52:00,
2013-01-18 05:02:00,21.0,14.0,30.43,WSW,241,2.0,-999.0,73,-99.99,,,-99.99,,2013-01-18 10:02:00,
2013-01-18 05:12:00,21.0,14.0,30.43,WSW,241,2.0,-999.0,73,-99.99,,,-99.99,,2013-01-18 10:12:00,
2013-01-18 05:22:00,21.0,14.0,30.42,SW,234,2.0,-999.0,73,-99.99,,,-99.99,,2013-01-18 10:22:00,
2013-01-18 05:32:00,21.0,14.0,30.42,SW,234,1.0,-999.0,73,-99.99,,,-99.99,,2013-01-18 10:32:00,
2013-01-18 05:42:00,21.0,14.0,30.42,SW,234,1.0,-999.0,73,-99.99,,,-99.99,,2013-01-18 10:42:00,
2013-01-18 05:52:00,21.0,14.0,30.43,SW,234,1.0,-999.0,73,-99.99,,,-99.99,,2013-01-18 10:52:00,
2013-01-18 06:02:00,21.0,14.0,30.42,SW,234,1.0,-999.0,74,-99.99,,,-99.99,,2013-01-18 11:02:00,
2013-01-18 06:12:00,21.0,14.0,30.42,SW,234,1.0,-999.0,74,-99.99,,,-99.99,,2013-01-18 11:12:00,
2013-01-18 06:22:00,21.0,14.0,30.42,SW,234,1.0,-999.0,74,-99.99,,,-99.99,,2013-01-18 11:22:00,
2013-01-18 06:32:00,21.0,14.0,30.42,SW,234,1.0,-999.0,74,-99.99,,,-99.99,,2013-01-18 11:32:00,
2013-01-18 06:42:00,21.0,14.0,30.42,SW,234,1.0,-999.0,74,-99.99,,,-99.99,,2013-01-18 11:42:00,
2013-01-18 06:53:00,21.0,14.0,30.42,SW,233,2.0,-999.0,74,-99.99,,,-99.99,,2013-01-18 11:53:00,
2013-01-18 07:02:00,21.0,14.0,30.43,SW,229,1.0,-999.0,75,-99.99,,,-99.99,,2013-01-18 12:02:00,
2013-01-18 07:12:00,21.0,14.0,30.43,SW,229,1.0,-999.0,75,-99.99,,,-99.99,,2013-01-18 12:12:00,
2013-01-18 07:22:00,21.0,14.0,30.42,SW,229,1.0,-999.0,75,-99.99,,,-99.99,,2013-01-18 12:22:00,
2013-01-18 07:33:00,21.0,14.0,30.42,SW,229,1.0,-999.0,75,-99.99,,,-99.99,,2013-01-18 12:33:00,
2013-01-18 07:42:00,21.0,14.0,30.42,SW,229,1.0,-999.0,75,-99.99,,,-99.99,,2013-01-18 12:42:00,
2013-01-18 07:53:00,21.0,15.0,30.42,SW,220,1.0,-999.0,76,-99.99,,,-99.99,,2013-01-18 12:53:00,
2013-01-18 08:03:00,21.0,15.0,30.42,SW,217,2.0,-999.0,76,-99.99,,,-99.99,,2013-01-18 13:03:00,
2013-01-18 08:12:00,21.0,15.0,30.42,SW,217,2.0,-999.0,76,-99.99,,,-99.99,,2013-01-18 13:12:00,
2013-01-18 08:23:00,21.0,15.0,30.42,SW,217,1.0,-999.0,77,-99.99,,,-99.99,,2013-01-18 13:23:00,
2013-01-18 08:33:00,21.0,15.0,30.42,SW,217,1.0,-999.0,77,-99.99,,,-99.99,,2013-01-18 13:33:00,
2013-01-18 08:43:00,21.0,15.0,30.42,SW,217,1.0,-999.0,77,-99.99,,,-99.99,,2013-01-18 13:43:00,
2013-01-18 08:53:00,22.0,16.0,30.42,SW,217,1.0,-999.0,77,-99.99,,,-99.99,,2013-01-18 13:53:00,
2013-01-18 09:03:00,22.0,16.0,30.42,SW,215,1.0,-999.0,77,-99.99,,,-99.99,,2013-01-18 14:03:00,
2013-01-18 09:12:00,22.0,16.0,30.42,SW,215,1.0,-999.0,77,-99.99,,,-99.99,,2013-01-18 14:12:00,
2013-01-18 09:22:00,22.0,16.0,30.42,SSW,210,2.0,-999.0,76,-99.99,,,-99.99,,2013-01-18 14:22:00,
2013-01-18 09:33:00,22.0,15.0,30.42,South,185,3.0,-999.0,75,-99.99,,,-99.99,,2013-01-18 14:33:00,
2013-01-18 09:42:00,22.0,15.0,30.42,South,185,3.0,-999.0,75,-99.99,,,-99.99,,2013-01-18 14:42:00,
2013-01-18 09:53:00,22.0,15.0,30.42,SW,226,3.0,-999.0,75,-99.99,,,-99.99,,2013-01-18 14:53:00,
2013-01-18 10:03:00,23.0,16.0,30.42,SW,220,3.0,-999.0,74,-99.99,,,-99.99,,2013-01-18 15:03:00,
2013-01-18 10:12:00,23.0,16.0,30.42,SW,220,3.0,-999.0,74,-99.99,,,-99.99,,2013-01-18 15:12:00,
2013-01-18 10:23:00,24.0,17.0,30.41,SSW,198,3.0,-999.0,73,-99.99,,,-99.99,,2013-01-18 15:23:00,
2013-01-18 10:33:00,26.0,18.0,30.41,South,188,3.0,-999.0,70,-99.99,,,-99.99,,2013-01-18 15:33:00,
2013-01-18 10:43:00,26.0,18.0,30.41,South,188,3.0,-999.0,70,-99.99,,,-99.99,,2013-01-18 15:43:00,
2013-01-18 10:53:00,26.0,18.0,30.41,SSW,203,5.0,-999.0,70,-99.99,,,-99.99,,2013-01-18 15:53:00,
2013-01-18 11:03:00,27.0,18.0,30.41,WSW,246,5.0,-999.0,69,-99.99,,,-99.99,,2013-01-18 16:03:00,
2013-01-18 11:12:00,27.0,18.0,30.41,WSW,246,5.0,-999.0,69,-99.99,,,-99.99,,2013-01-18 16:12:00,
2013-01-18 11:23:00,28.0,18.0,30.41,SW,219,4.0,-999.0,66,-99.99,,,-99.99,,2013-01-18 16:23:00,
2013-01-18 11:33:00,29.0,19.0,30.40,South,174,4.0,-999.0,65,-99.99,,,-99.99,,2013-01-18 16:33:00,
2013-01-18 11:42:00,29.0,19.0,30.40,South,174,4.0,-999.0,65,-99.99,,,-99.99,,2013-01-18 16:42:00,
2013-01-18 11:53:00,29.0,19.0,30.38,SW,216,6.0,-999.0,65,-99.99,,,-99.99,,2013-01-18 16:53:00,
2013-01-18 12:03:00,30.0,19.0,30.37,South,179,5.0,-999.0,63,-99.99,,,-99.99,,2013-01-18 17:03:00,
2013-01-18 12:13:00,30.0,19.0,30.37,South,179,5.0,-999.0,63,-99.99,,,-99.99,,2013-01-18 17:13:00,
2013-01-18 12:23:00,30.0,19.0,30.35,WSW,258,6.0,-999.0,62,-99.99,,,-99.99,,2013-01-18 17:23:00,
2013-01-18 12:33:00,31.0,20.0,30.34,South,181,6.0,-999.0,62,-99.99,,,-99.99,,2013-01-18 17:33:00,
2013-01-18 12:42:00,31.0,20.0,30.34,South,181,6.0,-999.0,62,-99.99,,,-99.99,,2013-01-18 17:42:00,
2013-01-18 12:53:00,31.0,20.0,30.32,SW,230,5.0,-999.0,63,-99.99,,,-99.99,,2013-01-18 17:53:00,
2013-01-18 13:03:00,32.0,21.0,30.31,South,189,5.0,-999.0,64,-99.99,,,-99.99,,2013-01-18 18:03:00,
2013-01-18 13:12:00,32.0,21.0,30.31,South,189,5.0,-999.0,64,-99.99,,,-99.99,,2013-01-18 18:12:00,
2013-01-18 13:23:00,32.0,21.0,30.29,SSW,195,6.0,-999.0,63,-99.99,,,-99.99,,2013-01-18 18:23:00,
2013-01-18 13:33:00,32.0,21.0,30.27,SSE,158,7.0,-999.0,63,-99.99,,,-99.99,,2013-01-18 18:33:00,
2013-01-18 13:43:00,32.0,21.0,30.27,SSE,158,7.0,-999.0,63,-99.99,,,-99.99,,2013-01-18 18:43:00,
2013-01-18 13:53:00,32.0,21.0,30.26,SSW,196,6.0,-999.0,64,-99.99,,,-99.99,,2013-01-18 18:53:00,
2013-01-18 14:03:00,33.0,22.0,30.24,SW,222,7.0,-999.0,64,-99.99,,,-99.99,,2013-01-18 19:03:00,
2013-01-18 14:12:00,33.0,22.0,30.24,SW,222,7.0,-999.0,64,-99.99,,,-99.99,,2013-01-18 19:12:00,
2013-01-18 14:22:00,33.0,22.0,30.23,SSW,202,7.0,-999.0,63,-99.99,,,-99.99,,2013-01-18 19:22:00,
2013-01-18 14:33:00,34.0,22.0,30.22,South,178,7.0,-999.0,61,-99.99,,,-99.99,,2013-01-18 19:33:00,
2013-01-18 14:42:00,34.0,22.0,30.22,South,178,7.0,-999.0,61,-99.99,,,-99.99,,2013-01-18 19:42:00,
2013-01-18 14:53:00,36.0,23.0,30.21,SSW,213,6.0,-999.0,59,-99.99,,,-99.99,,2013-01-18 19:53:00,
2013-01-18 15:03:00,36.0,23.0,30.19,SSW,192,7.0,-999.0,58,-99.99,,,-99.99,,2013-01-18 20:03:00,
2013-01-18 15:12:00,36.0,23.0,30.19,SSW,192,7.0,-999.0,58,-99.99,,,-99.99,,2013-01-18 20:12:00,
2013-01-18 15:23:00,36.0,23.0,30.18,South,188,8.0,-999.0,58,-99.99,,,-99.99,,2013-01-18 20:23:00,
2013-01-18 15:33:00,37.0,24.0,30.17,SSW,203,8.0,-999.0,58,-99.99,,,-99.99,,2013-01-18 20:33:00,
2013-01-18 15:42:00,37.0,24.0,30.17,SSW,203,8.0,-999.0,58,-99.99,,,-99.99,,2013-01-18 20:42:00,
2013-01-18 15:52:00,38.0,25.0,30.16,SW,226,8.0,-999.0,58,-99.99,,,-99.99,,2013-01-18 20:52:00,
2013-01-18 16:03:00,38.0,24.0,30.15,SSW,200,8.0,-999.0,57,-99.99,,,-99.99,,2013-01-18 21:03:00,
2013-01-18 16:12:00,38.0,24.0,30.15,SSW,200,8.0,-999.0,57,-99.99,,,-99.99,,2013-01-18 21:12:00,
2013-01-18 16:23:00,37.0,24.0,30.14,South,176,9.0,-999.0,58,-99.99,,,-99.99,,2013-01-18 21:23:00,
2013-01-18 16:33:00,37.0,24.0,30.13,SSW,202,6.0,-999.0,58,-99.99,,,-99.99,,2013-01-18 21:33:00,
2013-01-18 16:42:00,37.0,24.0,30.13,SSW,202,6.0,-999.0,58,-99.99,,,-99.99,,2013-01-18 21:42:00,
2013-01-18 16:53:00,38.0,24.0,30.12,SSW,196,6.0,-999.0,56,-99.99,,,-99.99,,2013-01-18 21:53:00,
2013-01-18 17:03:00,38.0,23.0,30.11,SW,219,7.0,-999.0,55,-99.99,,,-99.99,,2013-01-18 22:03:00,
2013-01-18 17:12:00,38.0,23.0,30.11,SW,219,7.0,-999.0,55,-99.99,,,-99.99,,2013-01-18 22:12:00,
2013-01-18 17:22:00,38.0,24.0,30.10,WSW,237,6.0,-999.0,56,-99.99,,,-99.99,,2013-01-18 22:22:00,
2013-01-18 17:32:00,37.0,23.0,30.09,SW,219,7.0,-999.0,57,-99.99,,,-99.99,,2013-01-18 22:32:00,
2013-01-18 17:42:00,37.0,23.0,30.09,SW,219,7.0,-999.0,57,-99.99,,,-99.99,,2013-01-18 22:42:00,
2013-01-18 17:53:00,37.0,23.0,30.09,SW,222,6.0,-999.0,57,-99.99,,,-99.99,,2013-01-18 22:53:00,
2013-01-18 18:02:00,37.0,24.0,30.09,South,181,5.0,-999.0,58,-99.99,,,-99.99,,2013-01-18 23:02:00,
2013-01-18 18:12:00,37.0,24.0,30.09,South,181,5.0,-999.0,58,-99.99,,,-99.99,,2013-01-18 23:12:00,
2013-01-18 18:22:00,36.0,23.0,30.07,South,184,6.0,-999.0,58,-99.99,,,-99.99,,2013-01-18 23:22:00,
2013-01-18 18:33:00,36.0,23.0,30.06,South,184,6.0,-999.0,59,-99.99,,,-99.99,,2013-01-18 23:33:00,
2013-01-18 18:42:00,36.0,23.0,30.06,South,184,6.0,-999.0,59,-99.99,,,-99.99,,2013-01-18 23:42:00,
2013-01-18 18:53:00,36.0,23.0,30.05,SSW,213,6.0,-999.0,58,-99.99,,,-99.99,,2013-01-18 23:53:00,
2013-01-18 19:02:00,36.0,23.0,30.05,SSW,195,5.0,-999.0,58,-99.99,,,-99.99,,2013-01-19 00:02:00,
2013-01-18 19:12:00,36.0,23.0,30.05,SSW,195,5.0,-999.0,58,-99.99,,,-99.99,,2013-01-19 00:12:00,
2013-01-18 19:22:00,36.0,23.0,30.04,SW,219,6.0,-999.0,58,-99.99,,,-99.99,,2013-01-19 00:22:00,
2013-01-18 19:32:00,37.0,24.0,30.04,South,185,5.0,-999.0,58,-99.99,,,-99.99,,2013-01-19 00:32:00,
2013-01-18 19:42:00,37.0,24.0,30.04,South,185,5.0,-999.0,58,-99.99,,,-99.99,,2013-01-19 00:42:00,
2013-01-18 19:53:00,36.0,23.0,30.05,SSW,203,6.0,-999.0,58,-99.99,,,-99.99,,2013-01-19 00:53:00,
2013-01-18 20:02:00,36.0,23.0,30.06,SSW,199,5.0,-999.0,59,-99.99,,,-99.99,,2013-01-19 01:02:00,
2013-01-18 20:12:00,36.0,23.0,30.06,SSW,199,5.0,-999.0,59,-99.99,,,-99.99,,2013-01-19 01:12:00,
2013-01-18 20:22:00,36.0,23.0,30.05,SSW,208,4.0,-999.0,59,-99.99,,,-99.99,,2013-01-19 01:22:00,
2013-01-18 20:32:00,37.0,24.0,30.05,SW,219,5.0,-999.0,58,-99.99,,,-99.99,,2013-01-19 01:32:00,
2013-01-18 20:42:00,37.0,24.0,30.05,SW,219,5.0,-999.0,58,-99.99,,,-99.99,,2013-01-19 01:42:00,
2013-01-18 20:53:00,37.0,23.0,30.04,WSW,256,6.0,-999.0,57,-99.99,,,-99.99,,2013-01-19 01:53:00,
2013-01-18 21:12:00,37.0,24.0,30.04,West,265,6.0,-999.0,58,-99.99,,,-99.99,,2013-01-19 02:12:00,
2013-01-18 21:22:00,37.0,24.0,30.04,South,189,8.0,-999.0,58,-99.99,,,-99.99,,2013-01-19 02:22:00,
2013-01-18 21:33:00,37.0,24.0,30.04,SSW,203,8.0,-999.0,60,-99.99,,,-99.99,,2013-01-19 02:33:00,
2013-01-18 21:42:00,37.0,24.0,30.04,SSW,203,8.0,-999.0,60,-99.99,,,-99.99,,2013-01-19 02:42:00,
2013-01-18 21:53:00,37.0,25.0,30.04,SSW,212,8.0,-999.0,61,-99.99,,,-99.99,,2013-01-19 02:53:00,
2013-01-18 22:02:00,37.0,25.0,30.04,SSW,199,7.0,-999.0,61,-99.99,,,-99.99,,2013-01-19 03:02:00,
2013-01-18 22:12:00,37.0,25.0,30.04,SSW,199,7.0,-999.0,61,-99.99,,,-99.99,,2013-01-19 03:12:00,
2013-01-18 22:22:00,37.0,25.0,30.03,WSW,254,7.0,-999.0,62,-99.99,,,-99.99,,2013-01-19 03:22:00,
2013-01-18 22:32:00,38.0,26.0,30.03,WSW,251,8.0,-999.0,62,-99.99,,,-99.99,,2013-01-19 03:32:00,
2013-01-18 22:43:00,38.0,26.0,30.03,WSW,251,8.0,-999.0,62,-99.99,,,-99.99,,2013-01-19 03:43:00,
2013-01-18 22:52:00,37.0,26.0,30.02,South,182,7.0,-999.0,63,-99.99,,,-99.99,,2013-01-19 03:52:00,
2013-01-18 23:02:00,37.0,26.0,30.02,SW,229,7.0,-999.0,64,-99.99,,,-99.99,,2013-01-19 04:02:00,
2013-01-18 23:12:00,37.0,26.0,30.02,SW,229,7.0,-999.0,64,-99.99,,,-99.99,,2013-01-19 04:12:00,
2013-01-18 23:22:00,38.0,27.0,30.01,SSW,209,8.0,-999.0,64,-99.99,,,-99.99,,2013-01-19 04:22:00,
2013-01-18 23:32:00,38.0,27.0,30.01,South,188,7.0,-999.0,64,-99.99,,,-99.99,,2013-01-19 04:32:00,
2013-01-18 23:42:00,38.0,27.0,30.01,South,188,7.0,-999.0,64,-99.99,,,-99.99,,2013-01-19 04:42:00,
2013-01-18 23:53:00,37.0,26.0,30.01,South,191,7.0,-999.0,64,-99.99,,,-99.99,,2013-01-19 04:53:00,